星链-5181 (STARLINK-5181 )

导读 | 豆包AI

STARLINK-5181是美国SpaceX公司星链(Starlink)项目的低轨通信卫星,于2022年10月20日发射,属于星链V1.5批次卫星。该卫星质量约295公斤,采用紧凑平板设计,配备激光星间链路,可实现卫星间直接通信,能提升星链网络带宽与可靠性,降低对地面基站依赖,服务全球高速宽带互联网接入,尤其覆盖偏远及海洋区域,目前在轨正常运行。

基本信息
目录编号:
54070
目录名称:
STARLINK-5181
国际标识:
2022-136V
轨道中心:
EARTH
卫星名称:
星链-5181
卫星全名:
星链-5181 (STARLINK-5181 )
卫星状态:
在轨 (已飞行1288 天)
发射日期:
2022-10-20 UTC
国别 :
美国 (US)
星等 :
--
轨道信息
数据来源 国际轨道数据 AOE轨道数据
星历时间 2026-04-30T12:39:01+0800
10小时前
查看轨道信息
2026-04-27T02:00:00+0800
3天前
查看轨道信息
半长轴 6917.893km 6917.886km
偏心率 0.0001306 0.0001721
轨道倾角 53.217° 53.212°
近地点辐角 84.546° 79.350°
升交点赤经 112.604° 128.064°
平近点角 275.568° 284.667°
近地点 538.852km 538.558km
远地点 540.66km 540.94km
周期 95.438分钟 95.438分钟
每日圈数 15.088362 15.088384
详细信息
固有亮度:
5
最大亮度:
2.5
卫星平台:
Starlink v1.5
覆盖范围:
全球
运营商:
太空探索技术公司
运营商所在国:
美国
制造商(研发单位):
太空探索技术公司
制造商所在国:
美国
使用方式:
暂无
卫星简介
星链(Starlink)计划是由太空探索技术公司(SpaceX)提出的一个巨型低轨卫星互联网星座项目,计划在2019年至2024年间在太空搭建由约1.2万颗卫星组成的“星链”网络,其中1584颗将部署在地球上空550千米处的近地轨道,并从2020年开始工作。该卫星仍在工作。
2D轨道图
3D轨道图
轨道高度分析图
轨道倾角分析图
轨道综合分析图
查看轨道综合分析图